Cape Girardeau, MO

2:05 PM CST on November 22, 2019 (GMT -0600)
Cape Girardeau Regional

Weather History for KCGI - October, 2019

Change the Weather History Date:

Tuesday, October 22, 2019

  Actual Average Record
Temperature  
Mean Temperature 54 °F 56 °F  
Max Temperature 65 °F 69 °F 85 °F (1963)
Min Temperature 43 °F 43 °F 28 °F (1982)
Degree Days  
Heating Degree Days 11 10  
Month to date heating degree days 138 157  
Since 1 July heating degree days 138 206  
Cooling Degree Days 0 1  
Month to date cooling degree days 51 29  
Year to date cooling degree days 1775 1451  
Growing Degree Days 6 (Base 50)    
Moisture  
Dew Point 38 °F    
Average Humidity 49    
Maximum Humidity 71    
Minimum Humidity 26    
Precipitation  
Precipitation 0.00 in 0.13 in 1.98 in (2009)
Month to date precipitation 3.11 2.64  
Year to date precipitation 50.78 36.97  
Sea Level Pressure  
Sea Level Pressure 29.95 in    
Wind  
Wind Speed 11 mph (WSW)    
Max Wind Speed 24 mph    
Max Gust Speed 31 mph    
Visibility 10 miles    
Events      
T = Trace of Precipitation, MM = Missing Value Source: NWS Daily Summary

Daily Weather History Graph

Daily Weather History Graph

Search for Another Location

Airport or City:

Astronomy

Oct. 22, 2019 Rise Set
Actual Time 7:12 AM CDT 6:12 PM CDT
Civil Twilight 6:46 AM CDT 6:38 PM CDT
Nautical Twilight 6:15 AM CDT 7:09 PM CDT
Astronomical Twilight 5:45 AM CDT 7:39 PM CDT
Moon 12:33 AM CDT 3:11 PM CDT
Length of Visible Light 11h 52m
Length of Day
10h 59m
Last Quarter, 37% of the Moon is Illuminated
Oct 22
Last Quarter
Oct 27
New
Nov 4
First Quarter
Nov 12
Full
Nov 19
Last Quarter

Hourly Weather History & Observations

Time (CDT) Temp. Windchill Dew Point Humidity Pressure Visibility Wind Dir Wind Speed Gust Speed Precip Events Conditions
12:53 AM 55.9 °F - 39.9 °F 55% 29.82 in 10.0 mi SW 12.7 mph - N/A   Clear
1:53 AM 53.1 °F - 41.0 °F 64% 29.82 in 10.0 mi SW 8.1 mph - N/A   Clear
2:53 AM 52.0 °F - 39.9 °F 63% 29.83 in 10.0 mi WSW 8.1 mph - N/A   Clear
3:53 AM 50.0 °F - 39.9 °F 68% 29.85 in 10.0 mi West 6.9 mph - N/A   Clear
4:53 AM 50.0 °F - 39.0 °F 66% 29.86 in 10.0 mi WSW 9.2 mph - N/A   Clear
5:53 AM 48.0 °F - 39.9 °F 74% 29.89 in 10.0 mi SW 6.9 mph - N/A   Clear
6:53 AM 50.0 °F - 39.0 °F 66% 29.90 in 10.0 mi WSW 9.2 mph - N/A   Clear
7:53 AM 50.0 °F - 39.9 °F 68% 29.92 in 10.0 mi WSW 16.1 mph - N/A   Clear
8:53 AM 51.1 °F - 41.0 °F 68% 29.96 in 10.0 mi WSW 16.1 mph - N/A   Clear
9:53 AM 53.1 °F - 41.0 °F 64% 29.96 in 10.0 mi West 15.0 mph - N/A   Clear
10:53 AM 55.9 °F - 42.1 °F 60% 29.97 in 10.0 mi WSW 17.3 mph - N/A   Clear
11:53 AM 59.0 °F - 41.0 °F 51% 29.97 in 10.0 mi West 11.5 mph - N/A   Clear
12:53 PM 61.0 °F - 39.0 °F 44% 29.96 in 10.0 mi West 13.8 mph 23.0 mph N/A   Clear
1:53 PM 63.0 °F - 33.1 °F 33% 29.95 in 10.0 mi West 17.3 mph 26.5 mph N/A   Clear
2:53 PM 64.0 °F - 32.0 °F 30% 29.94 in 10.0 mi West 18.4 mph 24.2 mph N/A   Clear
3:53 PM 64.0 °F - 28.9 °F 27% 29.96 in 10.0 mi West 21.9 mph 28.8 mph N/A   Clear
4:53 PM 63.0 °F - 30.9 °F 30% 29.96 in 10.0 mi West 16.1 mph 23.0 mph N/A   Clear
5:53 PM 57.9 °F - 35.1 °F 42% 29.96 in 10.0 mi West 6.9 mph - N/A   Clear
6:53 PM 55.0 °F - 37.0 °F 51% 29.99 in 10.0 mi West 6.9 mph - N/A   Overcast
7:53 PM 52.0 °F - 39.0 °F 61% 30.01 in 10.0 mi West 6.9 mph - N/A   Mostly Cloudy
8:53 PM 50.0 °F - 37.0 °F 61% 30.03 in 10.0 mi WSW 10.4 mph - N/A   Partly Cloudy
9:53 PM 48.0 °F - 37.0 °F 66% 30.05 in 10.0 mi West 6.9 mph - N/A   Clear
10:53 PM 48.0 °F - 37.0 °F 66% 30.06 in 10.0 mi SW 6.9 mph - N/A   Clear
11:53 PM 46.0 °F 44.8 °F 36.0 °F 68% 30.07 in 10.0 mi West 3.5 mph - N/A   Clear